Madawaska, ME

5:08 AM EST on February 14, 2016 (GMT -0500)
W1AYX | | Change Station
CLOSE
Current Station
Personal Weather Station
Location: Madawaska, ME
Elevation: 545 ft
Nearby Weather Stations
Active Advisory: Wind Chill Warning

Elev 545 ft 47.35 °N, 68.28 °W | Updated 4 seconds ago

Clear
Clear
-7.8 °F
Feels Like -22 °F
N
6.5
Wind Variable Wind from WNW
Gusts 7.4 mph

Today
High -- | Low -- °F
--% Chance of Precip.
Yesterday
High -- | Low -- °F
Precip. -- in
Pressure 30.03 in
Visibility 10.0 miles
Clouds Clear
Windchill -22 °F
Dew Point -27 °F
Humidity 37%
Rainfall 0.00 in
Snow Depth Not available.
6:40 AM 4:54 PM
Waxing Crescent, 40% visible
METAR KFVE 140953Z AUTO 32012G22KT 10SM CLR M23/M27 A2995 RMK AO2 SLP169 T12281272
Pressure 30.03 in
Visibility 10.0 miles
Clouds Clear
Windchill -22 °F
Dew Point -27 °F
Humidity 37%
Rainfall 0.00 in
Snow Depth Not available.
6:40 AM 4:54 PM
Waxing Crescent, 40% visible
METAR KFVE 140953Z AUTO 32012G22KT 10SM CLR M23/M27 A2995 RMK AO2 SLP169 T12281272

10-Day Weather Forecast

Almanac

Astronomy

Feb. 14, 2016 Rise Set
Actual Time
Civil Twilight
Nautical Twilight
Astronomical Twilight
Moon
Length of Visible Light
Length of Day
Tomorrow will be .
, % of the Moon is Illuminated

Today's Extremes

State Highs State Lows

Community

WunderPhotos

Upload Photos

1,892,761 photos uploaded!

WunderBlog® & News

Nearby

Air Quality

  Air Quality AQ Index Pollutant
Not available.

Snow Depth

Station Depth Elevation

Earthquake Activity

City Distance Mag. Time & Date
Minimum magnitude displayed is 2.5.

Coastal Water Temperatures

Place Temperature

Stations

Nearby Weather Stations

Station Location Temp. Windchill Dew Point Humidity Wind Precip. Elev Updated Type
                   

Watches & Warnings

Wind Chill Warning
Issued: 3:13 AM EST Feb. 14, 2016 – National Weather Service

... Wind chill warning remains in effect until 10 am EST this
morning...

* locations... northern Maine.

* Hazard types... bitterly cold wind chills.

* Wind chill readings... as low as 38 below.

* Timing... late tonight into Sunday morning.

* Impacts... frostbite and hypothermia are possible if not
dressed appropriately while outdoors.

* Winds... northwest around 10 mph with gusts up to 20 mph.

* Temperatures... 5 below to 18 below zero.

Precautionary/preparedness actions...

A wind chill warning means the combination of very cold air and
winds will create dangerously low wind chill values. This will
result in frost bite and lead to hypothermia or death if
precautions are not taken.